High Desert Yearling Classic - South Hills

Station: South Hills 15 Miles - T Race

Distance: 15 Miles

Release: 20-Apr-2017 11:45

Weather Release:    Arrival:

Wind at Release:     Wind at Arrival:

Temp at Release: °    Temp at Arrival: °

Lofts: 79

Birds: 290

Clocked: 253

Good Luck to Everyone!
Drops Pos Breeder Pigeon Name Color Sex Ent Arrival Speed To Win Eligible
202 Mc Laughlin Lofts - MA 0544-AU16-MCLO BB C 5 12:36:05.00 516.803 00:30:53 Yes
203 D & L Lofts - BC 16111-CU16-CU DC C 3 12:36:06.00 516.634 00:30:55 Yes
204 Rueter Family Loft - OR 6262-AU16-CORP BC C 1 12:36:07.00 516.466 00:30:55 Yes
205 Dave Naylor - BC 0274-CU16-PMTN BB C 2 12:36:36.00 511.628 00:31:24 Yes
206 Adirondack Team - NY 28342-AU16-AA BB H 5 12:38:37.00 492.384 00:33:26 Missing
207 Racing Pigeon Mall - WA 0645-AU16-RPM BLK H 5 12:38:40.00 491.925 00:33:29 Yes
207 So & Ca Family Loft - NY 0445-IF16-BXC "MORNING SUN" BB H 1 12:38:40.00 491.925 00:33:29 Yes
209 Hi-Cal Connection - CA 0736-AU16-HICA BB C 6 12:38:43.00 491.468 00:33:31 Yes
209 Frank Locante - WI 16046-AU16-FRLO BCWF H 3 12:38:43.00 491.468 00:33:31 Yes
212 Stella Loft - TX 48092-AU16-AA BB H 4 12:38:48.00 490.706 00:33:37 Missing
213 Rangel/Flores/Fregos - UT 1786-AU16-WFA BC H 4 12:38:52.00 490.099 00:33:41 Lost
213 Joe Zarachowicz - MD 1373-IF16-CCC BB H 5 12:38:52.00 490.099 00:33:41 Yes
215 F & D Lofts - AB 16192-AU16-FD BB C 2 12:38:58.00 489.191 00:33:46 Missing
216 Baldwin & Tilson - NC 6386-AU16-TENT BB H 6 12:38:59.00 489.040 00:33:47 Yes
217 Ganus Family Loft - IN 0966-AU16-GFL BB H 5 12:39:04.00 488.286 00:33:53 Yes
218 Rangel/Flores/Fregos - UT 1785-AU16-WFA BC H 5 12:39:07.00 487.835 00:33:55 Yes
219 2nd Chance Loft - ID 55471-AU16-ARPU 1x550 BB H 3 12:39:24.00 485.294 00:34:13 Lost
220 Silver Dollar Loft - CO 0106-AU16-SD BC H 6 12:39:32.00 484.108 00:34:20 Yes
221 Silver Dollar Loft - CO 0105-AU16-SD BBSP C 7 12:39:37.00 483.369 00:34:25 Yes
222 Mike Beam - KS 60742-AU16-TOP BB C 3 12:39:39.00 483.074 00:34:28 Yes
223 Ray Sackett - ID 1208-AU16-IDA BB C 1 12:39:42.00 482.633 00:34:30 Yes
224 Eagle Ridge Lofts - WY 16035-AU16-EAGL BC H 5 12:39:43.00 482.486 00:34:31 Lost
225 Chick Clayton - ID 0655-AU16-IDA BB H 3 12:39:49.00 481.605 00:34:38 Lost
226 Hammon Racing & Dirty Birds - AZ 0393-AU16-DWI BB H 3 12:39:54.00 480.874 00:34:43 Missing
227 Dave Dudley - CO 16161-AU16-PUEB BBWF H 4 12:39:57.00 480.437 00:34:45 Yes
228 Hotrocks Loft - UT 0555-AU16-WFA BBWF C 4 12:39:59.00 480.145 00:34:48 Yes
229 Larry Kidd - WY 0002-AU16-4US DC C 5 12:40:01.00 479.855 00:34:49 Lost
230 Racing Pigeon Mall - WA 0649-AU16-RPM BLK C 6 12:40:09.00 478.694 00:34:58 Yes
231 Joe Zarachowicz - MD 1359-IF16-CCC BC H 6 12:40:18.00 477.396 00:35:07 Missing
232 D & L Lofts - BC 16109-CU16-CU BC H 4 12:40:23.00 476.678 00:35:11 Yes
233 Silver Dollar Loft - CO 0112-AU16-SD BB H 8 12:40:24.00 476.534 00:35:13 Yes
234 Marty Hansen - CA 36644-AU16-AA BCPD H 3 12:40:47.00 473.260 00:35:35 Yes
235 Bert Bruno - UT 24641-AU16-FOYS BB C 6 12:42:12.00 461.538 00:37:01 Lost
236 Scott/Carol Team - UT 0254-AU16-DWI BC C 8 12:42:32.00 458.864 00:37:21 Yes
237 Mario Rodriguez - AZ 5365-AU16-ARPU RC C 2 12:43:32.00 451.025 00:38:21 Yes
238 Frank Locante - WI 16049-AU16-FRLO BB C 4 12:48:43.00 414.334 00:43:32 Lost
239 Ed Kehl - UT 0985-AU16-WFA BBPD C 3 12:49:06.00 411.856 00:43:55 Yes
240 Bert Bruno - UT 24637-AU16-FOYS BB C 7 12:51:08.00 399.194 00:45:56 Yes
241 Silver Dollar Loft - CO 0118-AU16-SD BC C 9 12:53:13.00 387.002 00:48:02 Yes
242 Nanez Family Lofts - WI 38384-AU16-JEDD BB C 3 12:54:57.00 377.412 00:49:46 Yes
243 Sam Haslem - UT 0096-AU16-SAM BBWF H 3 13:12:41.00 301.083 01:07:30 Missing
244 Lamonta - OR 1505-AU16-FOYS BBWF C 1 13:12:49.00 300.626 01:07:38 Missing
245 Bert Bruno - UT 24632-AU16-FOYS BB H 8 13:18:13.00 283.211 01:13:02 Lost
246 Ed Kehl - UT 0309-AU16-WFA BB C 4 14:25:17.00 164.708 02:20:06 Missing
247 2nd Chance Loft - ID 55483-AU16-ARPU 64x25 BB H 4 14:41:46.00 149.349 02:36:35 Yes
El Dorado Lofts Canada - BC 16236-CU16-CRPU BC C 15:10:40.00 128.363 Yes
248 Ray Sackett - ID 1207-AU16-IDA BB H 2 15:10:45.00 128.311 03:05:34 Lost
249 Christensen & Stevens - UT 0765-AU16-DWI BB H 4 16:20:54.00 95.687 04:15:42 Missing
250 Rory Smith - UT 6152-AU16-CDR BB H 3 17:58:51.00 70.617 05:53:39 Missing
251 Danny Lum - HI 8615-AU16-FSC BCWF C 8 2017-04-21 08:33:58.00 38.207 11:10:47 Lost
252 Steve Beier - ID 0828-AU16-IDA BC C 3 2017-04-21 09:10:03.00 36.311 11:46:52 Yes
253 Chen Loft - PA 0457-AU16-TFC BBPD C 9 2017-04-21 09:10:09.00 36.306 11:46:58 Lost
254 Western Loft - CA 0332-AU16-CHUI BB H 3 2017-04-21 10:56:24.00 31.677 13:33:13 Yes

There are 234 bird records

Note: These Race Results are unofficial and subject to change until verified by the Race Committee and declared final.

Click for forecast!